Time,TemperatureF,DewpointF,PressureIn,WindDirection,WindDirectionDegrees,WindSpeedMPH,WindSpeedGustMPH,Humidity,HourlyPrecipIn,Conditions,Clouds,dailyrainin,SoftwareType,DateUTC
2013-12-08 00:22:00,10.0,7.0,30.42,NW,304,0.0,0.0,88,0.00,,,0.00,,2013-12-08 08:22:00,
2013-12-08 00:42:00,10.0,7.0,30.41,NW,304,0.0,0.0,88,0.00,,,0.00,,2013-12-08 08:42:00,
2013-12-08 00:52:00,9.0,6.0,30.41,NW,304,0.0,0.0,88,0.00,,,0.00,,2013-12-08 08:52:00,
2013-12-08 01:21:00,9.0,6.0,30.42,NW,304,0.0,0.0,88,0.00,,,0.00,,2013-12-08 09:21:00,
2013-12-08 01:43:00,9.0,6.0,30.42,NW,304,0.0,1.0,89,0.00,,,0.00,,2013-12-08 09:43:00,
2013-12-08 01:53:00,9.0,6.0,30.41,NW,304,0.0,0.0,89,0.00,,,0.00,,2013-12-08 09:53:00,
2013-12-08 02:23:00,9.0,6.0,30.42,NW,304,0.0,0.0,88,0.00,,,0.00,,2013-12-08 10:23:00,
2013-12-08 02:43:00,9.0,7.0,30.43,NW,304,0.0,0.0,90,0.00,,,0.00,,2013-12-08 10:43:00,
2013-12-08 02:52:00,10.0,8.0,30.42,NW,304,0.0,0.0,91,0.00,,,0.00,,2013-12-08 10:52:00,
2013-12-08 03:22:00,11.0,9.0,30.43,NW,304,0.0,1.0,91,0.00,,,0.00,,2013-12-08 11:22:00,
2013-12-08 03:42:00,12.0,10.0,30.43,NW,304,0.0,0.0,91,0.00,,,0.00,,2013-12-08 11:42:00,
2013-12-08 03:52:00,13.0,11.0,30.43,NW,304,0.0,0.0,91,0.00,,,0.00,,2013-12-08 11:52:00,
2013-12-08 04:22:00,14.0,12.0,30.43,NW,304,0.0,1.0,91,0.00,,,0.00,,2013-12-08 12:22:00,
2013-12-08 04:42:00,15.0,13.0,30.43,NW,304,0.0,1.0,90,0.00,,,0.00,,2013-12-08 12:42:00,
2013-12-08 04:52:00,15.0,13.0,30.44,NW,304,0.0,0.0,90,0.00,,,0.00,,2013-12-08 12:52:00,
2013-12-08 05:21:00,15.0,13.0,30.44,NW,304,0.0,0.0,90,0.00,,,0.00,,2013-12-08 13:21:00,
2013-12-08 05:42:00,16.0,13.0,30.44,SSE,164,0.0,3.0,89,0.00,,,0.00,,2013-12-08 13:42:00,
2013-12-08 05:52:00,16.0,13.0,30.44,SSE,164,0.0,1.0,89,0.00,,,0.00,,2013-12-08 13:52:00,
2013-12-08 06:22:00,17.0,14.0,30.45,SSE,164,0.0,2.0,88,0.00,,,0.00,,2013-12-08 14:22:00,
2013-12-08 06:42:00,17.0,14.0,30.45,SSE,163,0.0,1.0,88,0.00,,,0.00,,2013-12-08 14:42:00,
2013-12-08 06:52:00,17.0,14.0,30.45,South,171,0.0,1.0,87,0.00,,,0.00,,2013-12-08 14:52:00,
2013-12-08 07:22:00,17.0,14.0,30.46,South,171,0.0,0.0,86,0.00,,,0.00,,2013-12-08 15:22:00,
2013-12-08 07:54:00,17.0,14.0,30.46,South,171,0.0,0.0,87,0.00,,,0.00,,2013-12-08 15:54:00,
2013-12-08 08:13:00,17.0,14.0,30.46,South,171,0.0,0.0,88,0.00,,,0.00,,2013-12-08 16:13:00,
2013-12-08 08:23:00,18.0,15.0,30.47,South,171,0.0,0.0,88,0.00,,,0.00,,2013-12-08 16:23:00,
2013-12-08 08:43:00,18.0,15.0,30.47,South,171,0.0,1.0,88,0.00,,,0.00,,2013-12-08 16:43:00,
2013-12-08 08:53:00,18.0,15.0,30.48,South,171,0.0,1.0,87,0.00,,,0.00,,2013-12-08 16:53:00,
2013-12-08 09:12:00,18.0,15.0,30.48,South,171,0.0,1.0,86,0.00,,,0.00,,2013-12-08 17:12:00,
2013-12-08 09:22:00,18.0,15.0,30.48,South,171,0.0,0.0,86,0.00,,,0.00,,2013-12-08 17:22:00,
2013-12-08 09:42:00,18.0,15.0,30.48,South,171,0.0,0.0,87,0.00,,,0.00,,2013-12-08 17:42:00,
2013-12-08 09:52:00,20.0,17.0,30.49,South,171,0.0,0.0,87,0.00,,,0.00,,2013-12-08 17:52:00,
2013-12-08 10:21:00,24.0,19.0,30.49,South,171,0.0,0.0,81,0.00,,,0.00,,2013-12-08 18:21:00,
2013-12-08 10:42:00,28.0,20.0,30.50,SSE,166,0.0,2.0,72,0.00,,,0.00,,2013-12-08 18:42:00,
2013-12-08 10:52:00,30.0,21.0,30.50,SSE,166,1.0,2.0,69,0.00,,,0.00,,2013-12-08 18:52:00,
2013-12-08 11:42:00,31.0,16.0,30.49,SE,144,1.0,3.0,53,0.00,,,0.00,,2013-12-08 19:42:00,
2013-12-08 11:52:00,32.0,16.0,30.49,SSE,150,2.0,5.0,51,0.00,,,0.00,,2013-12-08 19:52:00,
2013-12-08 12:11:00,32.0,13.0,30.49,SSE,156,1.0,4.0,45,0.00,,,0.00,,2013-12-08 20:11:00,
2013-12-08 12:21:00,33.0,15.0,30.49,SSW,202,1.0,4.0,48,0.00,,,0.00,,2013-12-08 20:21:00,
2013-12-08 12:42:00,34.0,16.0,30.49,SSW,201,1.0,3.0,47,0.00,,,0.00,,2013-12-08 20:42:00,
2013-12-08 12:52:00,33.0,17.0,30.48,ESE,113,0.0,3.0,52,0.00,,,0.00,,2013-12-08 20:52:00,
2013-12-08 13:22:00,33.0,17.0,30.48,ESE,115,0.0,3.0,51,0.00,,,0.00,,2013-12-08 21:22:00,
2013-12-08 13:53:00,34.0,17.0,30.48,ESE,120,1.0,3.0,49,0.00,,,0.00,,2013-12-08 21:53:00,
2013-12-08 14:23:00,35.0,18.0,30.47,SSW,205,0.0,4.0,50,0.00,,,0.00,,2013-12-08 22:23:00,
2013-12-08 14:43:00,35.0,17.0,30.48,South,178,1.0,3.0,48,0.00,,,0.00,,2013-12-08 22:43:00,
2013-12-08 14:53:00,34.0,18.0,30.47,SSW,207,1.0,4.0,51,0.00,,,0.00,,2013-12-08 22:53:00,
2013-12-08 15:22:00,33.0,17.0,30.49,WNW,295,1.0,5.0,51,0.00,,,0.00,,2013-12-08 23:22:00,
2013-12-08 15:42:00,32.0,17.0,30.49,WNW,294,0.0,5.0,53,0.00,,,0.00,,2013-12-08 23:42:00,
2013-12-08 15:52:00,31.0,16.0,30.49,WNW,294,1.0,3.0,54,0.00,,,0.00,,2013-12-08 23:52:00,
2013-12-08 16:11:00,30.0,16.0,30.49,WNW,294,1.0,4.0,55,0.00,,,0.00,,2013-12-09 00:11:00,
2013-12-08 16:21:00,30.0,17.0,30.50,WNW,294,0.0,2.0,57,0.00,,,0.00,,2013-12-09 00:21:00,
2013-12-08 16:42:00,29.0,17.0,30.49,WNW,294,0.0,1.0,61,0.00,,,0.00,,2013-12-09 00:42:00,
2013-12-08 16:52:00,27.0,16.0,30.50,WNW,294,0.0,0.0,64,0.00,,,0.00,,2013-12-09 00:52:00,
2013-12-08 17:11:00,26.0,16.0,30.50,WNW,294,0.0,2.0,66,0.00,,,0.00,,2013-12-09 01:11:00,
2013-12-08 17:21:00,25.0,17.0,30.50,WNW,294,0.0,0.0,71,0.00,,,0.00,,2013-12-09 01:21:00,
2013-12-08 17:42:00,23.0,16.0,30.50,WNW,294,0.0,0.0,74,0.00,,,0.00,,2013-12-09 01:42:00,
2013-12-08 17:52:00,22.0,16.0,30.50,WNW,294,0.0,0.0,76,0.00,,,0.00,,2013-12-09 01:52:00,
2013-12-08 18:21:00,20.0,15.0,30.50,WNW,294,0.0,0.0,79,0.00,,,0.00,,2013-12-09 02:21:00,
2013-12-08 18:42:00,19.0,14.0,30.50,WNW,294,0.0,0.0,80,0.00,,,0.00,,2013-12-09 02:42:00,
2013-12-08 18:52:00,18.0,13.0,30.49,WNW,294,0.0,0.0,82,0.00,,,0.00,,2013-12-09 02:52:00,
2013-12-08 19:22:00,17.0,13.0,30.50,WNW,294,0.0,1.0,84,0.00,,,0.00,,2013-12-09 03:22:00,
2013-12-08 19:43:00,17.0,13.0,30.50,WNW,294,0.0,0.0,85,0.00,,,0.00,,2013-12-09 03:43:00,
2013-12-08 19:53:00,16.0,13.0,30.51,WNW,294,0.0,0.0,86,0.00,,,0.00,,2013-12-09 03:53:00,
2013-12-08 20:13:00,16.0,13.0,30.50,WNW,294,0.0,0.0,87,0.00,,,0.00,,2013-12-09 04:13:00,
2013-12-08 20:22:00,16.0,13.0,30.50,WNW,294,0.0,0.0,87,0.00,,,0.00,,2013-12-09 04:22:00,
2013-12-08 20:53:00,15.0,12.0,30.52,WNW,294,0.0,0.0,88,0.00,,,0.00,,2013-12-09 04:53:00,
2013-12-08 21:23:00,15.0,12.0,30.52,WNW,294,0.0,0.0,89,0.00,,,0.00,,2013-12-09 05:23:00,
2013-12-08 21:42:00,15.0,12.0,30.53,WNW,294,0.0,0.0,88,0.00,,,0.00,,2013-12-09 05:42:00,
2013-12-08 21:52:00,15.0,12.0,30.53,WNW,294,0.0,0.0,89,0.00,,,0.00,,2013-12-09 05:52:00,
2013-12-08 22:21:00,14.0,11.0,30.55,WNW,294,0.0,0.0,89,0.00,,,0.00,,2013-12-09 06:21:00,
2013-12-08 22:42:00,14.0,11.0,30.55,WNW,294,0.0,0.0,89,0.00,,,0.00,,2013-12-09 06:42:00,
2013-12-08 22:52:00,14.0,12.0,30.55,WNW,294,0.0,0.0,90,0.00,,,0.00,,2013-12-09 06:52:00,
2013-12-08 23:22:00,14.0,12.0,30.55,WNW,294,0.0,0.0,91,0.00,,,0.00,,2013-12-09 07:22:00,
2013-12-08 23:42:00,14.0,12.0,30.55,WNW,294,0.0,0.0,90,0.00,,,0.00,,2013-12-09 07:42:00,
2013-12-08 23:52:00,14.0,12.0,30.55,WNW,294,0.0,1.0,90,0.00,,,0.00,,2013-12-09 07:52:00,